Terug naar catalogus

IRIDIUM 144

ActiefCommunicatiePO
NORAD 43249·PAYLOAD·🇺🇸 United States

Gelanceerd Mar 30, 2018 vanaf Vandenberg Space Force Base

Loading…

Volgende Passages (komende 24 uur)

TLE

VersSource: CelesTrak SupGP

Epoch: Sep 14, 2026, 21:39 UTC

1 43249C 18030A   26257.90243056  .00002549  00000+0  91125-3 0  2572
2 43249  86.3912 252.8707 0002304  89.6580  10.0207 14.34216204    17

Volg IRIDIUM 144 in realtime met AllMySat

Download on the App Store